Flag for Spain Weather past 2 weeks in Santander, Spain

Now
55 °F

Sunny.


Feels Like: 55 °F
Forecast: 55 / 66 °F
Wind: No wind

Location: Santander / Parayas

Current Time: Apr 21, 2015 at 11:08:55 AM

Latest Report: Apr 21, 2015 at 10:30 AM


Visibility: 10 mi

Pressure: 30.15 "Hg

Humidity: 82%

Dew point: 50 °F

Location of SantanderLocation

Historic Weather in Santander — Graph

°F

Santander temperature yesterday

Maximum temperature yesterday: 61 °F (at 3:30 PM)
Minimum temperature yesterday: 46 °F (at 7:00 AM)
Average temperature yesterday: 55 °F

Past Weeks' High & Low Weather Summary

 TemperatureHumidityPressure
High81 °F (Apr 14, 5:30 PM)100% (Apr 16, 5:30 AM)30.36 "Hg (Apr 16, 5:30 AM)
Low39 °F (Apr 7, 5:30 AM)22% (Apr 15, 8:30 AM)29.89 "Hg (Apr 15, 9:30 AM)
Average59 °F73%30.12 "Hg
* Reported Apr 6 9:00 AM — Apr 21 9:30 AM, Santander, Weather by CustomWeather, © 2015

Note: Actual official high and low records may vary slightly from our data, if they occured in-between our weather recording intervals... More about our weather records

Advertising

Santander weather history for previous 24 hours

 ConditionsComfort  
Time TempWeatherWind HumidityBarometerVisibility
9:30 AM
Tue, Apr 21
54 °FSunny.No wind94%30.18 "Hg10 mi
9:00 AM50 °FSunny.No wind94%30.15 "Hg10 mi
8:30 AM50 °FSunny.2 mph94%30.15 "Hg10 mi
8:00 AM48 °FClear.No wind94%30.15 "Hg10 mi
7:30 AM46 °FClear.No wind93%30.15 "Hg10 mi
7:00 AM48 °FClear.No wind94%30.15 "Hg10 mi
6:30 AM48 °FClear.No wind94%30.15 "Hg6 mi
6:00 AM48 °FClear.2 mph94%30.15 "Hg4 mi
5:30 AM48 °FClear.No wind94%30.15 "Hg4 mi
11:00 PM
Mon, Apr 20
54 °FPassing clouds.3 mph88%30.21 "HgN/A
10:30 PM54 °FPassing clouds.3 mph88%30.21 "HgN/A
10:00 PM55 °FPassing clouds.3 mph88%30.18 "HgN/A
9:30 PM55 °FPassing clouds.3 mph82%30.18 "HgN/A
9:00 PM55 °FPassing clouds.6 mph82%30.18 "HgN/A
8:30 PM57 °FPassing clouds.7 mph82%30.18 "HgN/A
8:00 PM57 °FPassing clouds.12 mph82%30.18 "HgN/A
7:30 PM57 °FPassing clouds.9 mph82%30.18 "HgN/A
7:00 PM57 °FPassing clouds.10 mph82%30.18 "HgN/A
6:30 PM59 °FPassing clouds.9 mph77%30.18 "HgN/A
6:00 PM59 °FPassing clouds.9 mph77%30.18 "HgN/A
5:30 PM59 °FPassing clouds.8 mph77%30.18 "HgN/A
5:00 PM59 °FPassing clouds.9 mph77%30.18 "HgN/A
4:30 PM61 °FPassing clouds.6 mph72%30.18 "HgN/A
4:00 PM59 °FPassing clouds.10 mph77%30.18 "HgN/A
3:30 PM61 °FPassing clouds.7 mph72%30.18 "HgN/A
3:00 PM59 °FPassing clouds.9 mph72%30.18 "HgN/A
2:30 PM59 °FPassing clouds.7 mph72%30.21 "HgN/A
2:00 PM59 °FPassing clouds.8 mph72%30.21 "HgN/A
1:30 PM59 °FPassing clouds.6 mph72%30.21 "HgN/A
1:00 PM59 °FPassing clouds.6 mph72%30.21 "HgN/A
12:00 PM59 °FPassing clouds.3 mph72%30.21 "HgN/A
11:30 AM59 °FPassing clouds.2 mph72%30.21 "HgN/A
11:00 AM59 °FPassing clouds.2 mph72%30.21 "HgN/A
Weather by CustomWeather, © 2015

See weather overviewHow to use our weather pages